Flag for Canada Weather past 2 weeks in North Bay, Ontario, Canada

Now
64 °F

Haze.


Feels Like: 64 °F
Forecast: 63 / 82 °F
Wind: 5 mph from Southwest

Location: North Bay

Current Time: Aug 31, 2015 at 8:45:39 PM

Latest Report: Aug 31, 2015 at 8:00 PM


Visibility: 4 mi

Pressure: 30.02 "Hg

Humidity: 94%

Dew point: 63 °F

Location of North BayLocation

Historic Weather in North Bay — Graph

°F

North Bay temperature yesterday

Maximum temperature yesterday: 73 °F (at 5:00 PM)
Minimum temperature yesterday: 61 °F (at 1:01 AM)
Average temperature yesterday: 65 °F

Past Weeks' High & Low Weather Summary

 TemperatureHumidityPressure
High84 °F (Aug 19, 3:00 PM)100% (Aug 17, 5:00 AM)30.21 "Hg (Aug 17, 5:00 AM)
Low46 °F (Aug 27, 4:03 AM)42% (Aug 23, 5:00 PM)29.59 "Hg (Aug 20, 10:00 AM)
Average65 °F86%29.96 "Hg
* Reported Aug 16 7:00 PM — Aug 31 7:00 PM, North Bay, Weather by CustomWeather, © 2015

Note: Actual official high and low records may vary slightly from our data, if they occured in-between our weather recording intervals... More about our weather records

Advertising

North Bay weather history for previous 24 hours

 ConditionsComfort  
Time TempWeatherWind HumidityBarometerVisibility
7:00 PM
Mon, Aug 31
68 °FHaze.7 mph88%30.03 "Hg6 mi
6:00 PM70 °FPartly sunny.6 mph83%30.03 "Hg7 mi
5:00 PM70 °FPartly sunny.8 mph78%30.03 "Hg7 mi
4:00 PM70 °FOvercast.8 mph78%30.03 "Hg7 mi
3:00 PM68 °FOvercast.7 mph83%30.03 "Hg7 mi
2:00 PM68 °FOvercast.9 mph88%30.03 "Hg10 mi
1:00 PM68 °FOvercast.7 mph83%30.03 "Hg10 mi
12:00 PM66 °FOvercast.3 mph88%30.03 "Hg8 mi
11:00 AM66 °FLow clouds.6 mph88%30.02 "Hg8 mi
10:00 AM64 °FLow clouds.7 mph94%30.00 "Hg8 mi
9:00 AM64 °FLow clouds.3 mph94%29.99 "Hg8 mi
8:00 AM63 °FLow clouds.6 mph100%29.98 "Hg8 mi
7:00 AM63 °FLow clouds.7 mph100%29.96 "Hg8 mi
6:00 AM63 °FLow clouds.8 mph100%29.95 "Hg9 mi
5:00 AM64 °FLow clouds.8 mph94%29.94 "Hg9 mi
4:00 AM64 °FFog.10 mph94%29.95 "Hg4 mi
3:00 AM64 °FFog.10 mph94%29.95 "Hg5 mi
2:00 AM64 °FFog.9 mph94%29.97 "Hg5 mi
1:04 AM64 °FFog.12 mph94%29.97 "Hg5 mi
12:00 AM63 °FPassing clouds.10 mph100%29.96 "Hg7 mi
11:00 PM
Sun, Aug 30
63 °FClear.10 mph94%29.97 "Hg9 mi
10:00 PM64 °FPassing clouds.9 mph88%29.97 "Hg15 mi
9:00 PM66 °FPassing clouds.13 mph78%29.97 "Hg15 mi
8:00 PM66 °FPartly sunny.9 mph78%29.96 "Hg15 mi
Weather by CustomWeather, © 2015

See weather overviewHow to use our weather pages